This is the latest recevied weather packets stored in our database for station/object OH2HCY-3. If no packets are shown the sender has not sent any weather packets the latest 10 day(s).
| Time | Temp. | Humidity | Pressure | Rain* | Wind** | Luminosity | Snow |
|---|---|---|---|---|---|---|---|
| 1777535375 | 8.33° C | 70% | 1022 hPa | - | - | - | - |
| 1777534185 | 7.78° C | 74% | 1022.1 hPa | - | - | - | - |
| 1777533125 | 7.22° C | 75% | 1022.2 hPa | - | - | - | - |
| 1777532095 | 6.67° C | 76% | 1022.2 hPa | - | - | - | - |
| 1777530982 | 6.67° C | 77% | 1022.2 hPa | - | - | - | - |
| 1777530980 | 6.67° C | 77% | 1022.2 hPa | - | - | - | - |
| 1777529968 | 6.11° C | 78% | - | - | - | - | - |
| 1777529964 | 6.11° C | 78% | 1022.2 hPa | - | - | - | - |
| 1777528925 | 5.56° C | 78% | 1022.3 hPa | - | - | - | - |
| 1777527749 | 5.56° C | 78% | 1022.5 hPa | - | - | - | - |
| 1777526685 | 5° C | 77% | 1022.7 hPa | - | - | - | - |
| 1777525710 | 5° C | 77% | 1022.7 hPa | - | - | - | - |
| 1777524570 | 5° C | 76% | 1022.8 hPa | - | - | - | - |
| 1777523530 | 5° C | 76% | 1022.8 hPa | - | - | - | - |
| 1777522520 | 5° C | 75% | 1022.8 hPa | - | - | - | - |
| 1777521515 | 4.44° C | 75% | 1022.4 hPa | - | - | - | - |
| 1777520350 | 4.44° C | 74% | 1022.7 hPa | - | - | - | - |
| 1777519225 | 4.44° C | 72% | 1022.8 hPa | - | - | - | - |
| 1777518250 | 4.44° C | 72% | 1023.1 hPa | - | - | - | - |
| 1777517213 | 4.44° C | 71% | 1022.9 hPa | - | - | - | - |
| 1777516080 | 4.44° C | 69% | 1023 hPa | - | - | - | - |
| 1777515040 | 3.89° C | 68% | 1023.1 hPa | - | - | - | - |
| 1777513880 | 3.89° C | 67% | 1023.2 hPa | - | - | - | - |
| 1777512825 | 3.89° C | 66% | 1023.2 hPa | - | - | - | - |
| 1777511789 | 3.89° C | 65% | 1023.4 hPa | - | - | - | - |
* Rain since midnight (hover to see other rain measurements)
** Current wind speed in m/s (hover to see current wind gust speed)